Decatur, IL

12:04 PM CDT on July 26, 2017 (GMT -0500)
Decatur

Weather History for KDEC - February, 2013

Change the Weather History Date:

Thursday, February 21, 2013

  Actual Average Record
Temperature  
Mean Temperature 23 °F 33 °F  
Max Temperature 32 °F 41 °F 62 °F (2017)
Min Temperature 14 °F 25 °F 20 °F (2015)
Degree Days  
Heating Degree Days 42 32  
Month to date heating degree days 707 734  
Since 1 July heating degree days 3734 4041  
Cooling Degree Days 0 0  
Month to date cooling degree days 0 0  
Year to date cooling degree days 0 0  
Moisture  
Dew Point 23 °F    
Average Humidity 81    
Maximum Humidity 92    
Minimum Humidity 69    
Precipitation  
Precipitation 0.00 in 0.08 in 0.06 in (2017)
Month to date precipitation 1.17 1.45  
Year to date precipitation 3.32 3.19  
Sea Level Pressure  
Sea Level Pressure 30.09 in    
Wind  
Wind Speed 16 mph (East)    
Max Wind Speed 32 mph    
Max Gust Speed 38 mph    
Visibility 4 miles    
Events Fog , Rain , Snow    
T = Trace of Precipitation, MM = Missing Value Source: NWS Daily Summary

Daily Weather History Graph

Daily Weather History Graph

Search for Another Location

Airport or City:

Trip Planner

Search our weather history database for the weather conditions in past years. The results will help you decide how hot, cold, wet, or windy it might be!

Date:

Astronomy

Feb. 21, 2013 Rise Set
Actual Time 6:39 AM CST 5:38 PM CST
Civil Twilight 6:12 AM CST 6:06 PM CST
Nautical Twilight 5:41 AM CST 6:37 PM CST
Astronomical Twilight 5:09 AM CST 7:09 PM CST
Moon 1:53 PM CST (2/21) 3:44 AM CST (2/21)
Length of Visible Light 11h 53m
Length of Day
10h 59m
Waxing Gibbous, 84% of the Moon is Illuminated
Feb 21
Waxing Gibbous
Feb 25
Full
Mar 4
Last Quarter
Mar 11
New
Mar 19
First Quarter

Hourly Weather History & Observations

Time (CST) Temp. Windchill Dew Point Humidity Pressure Visibility Wind Dir Wind Speed Gust Speed Precip Events Conditions
1:54 AM 16.0 °F 6.3 °F 12.9 °F 88% 30.37 in 10.0 mi NE 6.9 mph - N/A   Clear
2:54 AM 15.1 °F 6.4 °F 12.0 °F 88% 30.35 in 10.0 mi NE 5.8 mph - N/A   Clear
3:54 AM 15.1 °F 5.2 °F 10.9 °F 84% 30.35 in 10.0 mi ENE 6.9 mph - N/A   Clear
4:54 AM 17.1 °F 5.8 °F 12.0 °F 81% 30.34 in 10.0 mi ENE 9.2 mph - N/A   Clear
5:54 AM 17.1 °F 6.6 °F 12.9 °F 84% 30.35 in 10.0 mi East 8.1 mph - N/A   Clear
6:54 AM 18.0 °F 6.1 °F 12.9 °F 81% 30.32 in 10.0 mi East 10.4 mph - N/A   Clear
7:54 AM 21.0 °F 6.6 °F 16.0 °F 81% 30.31 in 10.0 mi East 17.3 mph - N/A   Clear
8:54 AM 24.1 °F 11.0 °F 18.0 °F 77% 30.35 in 10.0 mi ESE 16.1 mph - N/A   Clear
9:40 AM 24.8 °F 10.7 °F 17.6 °F 74% 30.28 in 10.0 mi ESE 19.6 mph 25.3 mph N/A   Mostly Cloudy
9:54 AM 25.0 °F 10.9 °F 18.0 °F 75% 30.30 in 10.0 mi East 19.6 mph - N/A   Mostly Cloudy
10:11 AM 26.6 °F 12.7 °F 17.6 °F 69% 30.26 in 10.0 mi East 20.7 mph - N/A   Scattered Clouds
10:20 AM 26.6 °F 12.7 °F 17.6 °F 69% 30.25 in 10.0 mi East 20.7 mph - N/A   Mostly Cloudy
10:54 AM 27.0 °F 13.2 °F 19.9 °F 75% 30.26 in 10.0 mi East 20.7 mph - N/A   Overcast
11:54 AM 28.0 °F 13.9 °F 19.9 °F 72% 30.17 in 10.0 mi East 23.0 mph 28.8 mph N/A   Scattered Clouds
12:54 PM 28.9 °F 16.9 °F 19.9 °F 69% 30.17 in 10.0 mi East 17.3 mph 25.3 mph N/A   Overcast
1:54 PM 28.9 °F 18.6 °F 21.0 °F 72% 30.21 in 10.0 mi East 12.7 mph - N/A   Overcast
2:54 PM 28.9 °F 17.3 °F 21.0 °F 72% 30.17 in 10.0 mi East 16.1 mph - N/A   Overcast
3:09 PM 28.4 °F 17.5 °F 21.2 °F 74% 30.13 in 1.2 mi East 13.8 mph - 0.00 in Snow Light Snow
3:14 PM 28.4 °F 18.0 °F 23.0 °F 80% 30.14 in 0.2 mi East 12.7 mph - 0.00 in Snow Heavy Snow
3:24 PM 28.4 °F 16.2 °F 24.8 °F 86% 30.13 in 0.5 mi East 17.3 mph - 0.00 in Fog , Snow Light Snow
3:54 PM 27.0 °F 14.7 °F 25.0 °F 92% 30.13 in 0.5 mi East 16.1 mph - 0.00 in Fog , Snow Snow
4:01 PM 26.6 °F 14.3 °F 24.8 °F 93% 30.11 in 0.2 mi East 16.1 mph - 0.00 in Fog , Snow Heavy Snow
4:24 PM 26.6 °F 14.3 °F 24.8 °F 93% 30.09 in 0.5 mi East 16.1 mph - 0.00 in Fog , Snow Light Snow
4:39 PM 26.6 °F 13.8 °F 24.8 °F 93% 30.05 in 0.2 mi East 17.3 mph - 0.00 in Fog , Snow Snow
4:54 PM 27.0 °F 14.7 °F 25.0 °F 92% 30.07 in 0.2 mi East 16.1 mph - 0.00 in Fog , Snow Snow
5:40 PM 26.6 °F 11.7 °F 24.8 °F 93% 30.01 in 0.5 mi East 24.2 mph - 0.00 in Fog , Snow Snow
5:52 PM 26.6 °F 11.1 °F 24.8 °F 93% 29.99 in 0.8 mi East 26.5 mph - 0.00 in Snow Light Snow
5:54 PM 27.0 °F 11.9 °F 24.1 °F 89% 30.02 in 0.8 mi East 25.3 mph - 0.00 in Snow Light Snow
6:26 PM 26.6 °F 11.1 °F 24.8 °F 93% 29.93 in 0.8 mi ENE 26.5 mph 33.4 mph 0.00 in Snow Light Snow
6:42 PM 28.4 °F 12.5 °F 24.8 °F 86% 29.89 in 0.8 mi East 31.1 mph 35.7 mph 0.00 in Rain Light Freezing Rain
6:54 PM 28.0 °F 12.8 °F 25.0 °F 88% 29.94 in 0.8 mi East 27.6 mph 36.8 mph 0.00 in Rain Light Freezing Rain
7:01 PM 28.4 °F 12.5 °F 24.8 °F 86% 29.92 in 1.0 mi East 31.1 mph 38.0 mph 0.00 in Rain Light Freezing Rain
7:24 PM 28.4 °F 13.3 °F 24.8 °F 86% 29.90 in 2.5 mi East 27.6 mph 34.5 mph 0.00 in Rain Light Freezing Rain
7:54 PM 28.0 °F 13.0 °F 25.0 °F 88% 29.94 in 2.5 mi East 26.5 mph 32.2 mph 0.00 in Rain Light Freezing Rain
8:18 PM 28.4 °F 14.7 °F 26.6 °F 93% 29.93 in 0.8 mi ESE 21.9 mph - 0.00 in Rain Light Freezing Rain
8:30 PM 30.2 °F 17.8 °F 26.6 °F 86% 29.94 in 0.5 mi ESE 19.6 mph - 0.00 in Fog Light Freezing Fog
8:33 PM 30.2 °F 18.1 °F 26.6 °F 86% 29.94 in 1.0 mi ESE 18.4 mph - 0.00 in Rain Light Freezing Rain
8:37 PM 30.2 °F 17.4 °F 26.6 °F 86% 29.94 in 3.0 mi ESE 20.7 mph - 0.00 in Rain Light Freezing Rain
8:54 PM 30.0 °F 16.6 °F 27.0 °F 88% 29.94 in 4.0 mi East 23.0 mph 29.9 mph 0.00 in Rain Light Freezing Rain
9:46 PM 30.2 °F 16.8 °F 28.4 °F 93% 29.88 in 2.0 mi ESE 23.0 mph - 0.00 in Rain Light Freezing Rain
9:54 PM 30.9 °F 17.8 °F 28.9 °F 92% 29.90 in 2.5 mi ESE 23.0 mph - 0.00 in Rain Light Freezing Rain
10:33 PM 32.0 °F 20.5 °F 30.2 °F 93% 29.87 in 1.8 mi ESE 18.4 mph - 0.00 in Rain Light Freezing Rain
10:45 PM 32.0 °F 20.8 °F 30.2 °F 93% 29.89 in 2.0 mi ESE 17.3 mph - 0.00 in Rain Light Freezing Rain
10:54 PM 32.0 °F 21.6 °F 30.0 °F 92% 29.90 in 1.8 mi ESE 15.0 mph - 0.00 in Rain Light Freezing Rain
11:13 PM 32.0 °F 20.8 °F 30.2 °F 93% 29.86 in 2.0 mi ESE 17.3 mph - 0.00 in Rain Light Freezing Rain
11:37 PM 32.0 °F 22.1 °F 30.2 °F 93% 29.85 in 3.0 mi SE 13.8 mph - 0.00 in Rain Light Freezing Rain